Weather History for Jonesville, VA

Change the Weather History Date:

Saturday, May 11, 2013

  Actual Average (KLOZ) Record (KLOZ)
Temperature  
Mean Temperature 61 °F 64 °F  
Max Temperature 69 °F 75 °F 87 °F (1979)
Min Temperature 53 °F 52 °F 35 °F (1997)
Degree Days  
Heating Degree Days 4 4  
Month to date heating degree days 48  
Since 1 July heating degree days 4149  
Cooling Degree Days 0 2  
Month to date cooling degree days 17  
Year to date cooling degree days 43  
Growing Degree Days 11 (Base 50)    
Moisture  
Dew Point 57 °F    
Average Humidity 85    
Maximum Humidity 100    
Minimum Humidity 64    
Precipitation  
Precipitation 0.32 in 0.16 in 1.90 in (1958)
Month to date precipitation 1.78  
Year to date precipitation 17.13  
Sea Level Pressure  
Sea Level Pressure 29.95 in    
Wind  
Wind Speed 2 mph (West)    
Max Wind Speed 14 mph    
Max Gust Speed 22 mph    
Visibility 8 miles    
Events Rain    
T = Trace of Precipitation, MM = Missing Value Source: NWS Daily Summary

Daily Weather History Graph

Daily Weather History Graph

Search for Another Location

Airport:

Trip Planner

Search our weather history database for the weather conditions in past years. The results will help you decide how hot, cold, wet, or windy it might be!

Date:

Astronomy

May. 11, 2013 Rise Set
Actual Time 6:28 AM EDT 8:30 PM EDT
Civil Twilight 6:00 AM EDT 8:58 PM EDT
Nautical Twilight 5:25 AM EDT 9:33 PM EDT
Astronomical Twilight 4:48 AM EDT 10:11 PM EDT
Moon 7:36 AM EDT (5/11) 10:08 PM EDT (5/11)
Length of Visible Light 14h 58m
Length of Day
14h 01m
Waxing Crescent, 3% of the Moon is Illuminated
May 11
Waxing Crescent
May 18
First Quarter
May 25
Full
May 31
Last Quarter
Jun 8
New

Hourly Weather History & Observations

Time (EDT) Temp. Dew Point Humidity Pressure Visibility Wind Dir Wind Speed Gust Speed Precip Events Conditions
12:15 AM 59.0 °F 59.0 °F 100% 30.00 in 10.0 mi Calm Calm - N/A Rain Light Rain
12:55 AM 60.8 °F 57.2 °F 88% 30.00 in 10.0 mi Calm Calm - N/A   Unknown
1:15 AM 60.8 °F 57.2 °F 88% 29.99 in 10.0 mi Calm Calm - N/A   Unknown
1:35 AM 60.8 °F 57.2 °F 88% 29.98 in 10.0 mi Calm Calm - N/A   Unknown
1:55 AM 59.0 °F 57.2 °F 94% 29.97 in 10.0 mi Calm Calm - N/A   Unknown
2:15 AM 59.0 °F 57.2 °F 94% 29.98 in 10.0 mi Calm Calm - N/A   Unknown
2:35 AM 59.0 °F 59.0 °F 100% 29.97 in 8.0 mi Calm Calm - N/A   Unknown
2:55 AM 59.0 °F 59.0 °F 100% 29.97 in 3.0 mi Calm Calm - N/A Rain Light Rain
3:15 AM 59.0 °F 59.0 °F 100% 29.97 in 10.0 mi Calm Calm - N/A   Unknown
3:35 AM 59.0 °F 59.0 °F 100% 29.97 in 3.0 mi Calm Calm - 0.01 in Rain Light Rain
3:55 AM 59.0 °F 59.0 °F 100% 29.96 in 4.0 mi Calm Calm - 0.03 in Rain Light Rain
4:15 AM 59.0 °F 59.0 °F 100% 29.96 in 5.0 mi Calm Calm - N/A Rain Light Rain
4:35 AM 59.0 °F 59.0 °F 100% 29.96 in 3.0 mi Calm Calm - 0.01 in Rain Light Rain
4:55 AM 59.0 °F 59.0 °F 100% 29.95 in 5.0 mi Calm Calm - 0.01 in Rain Light Rain
5:15 AM 59.0 °F 59.0 °F 100% 29.95 in 5.0 mi Calm Calm - N/A Rain Light Rain
5:35 AM 59.0 °F 59.0 °F 100% 29.95 in 3.0 mi Calm Calm - N/A   Mist
5:55 AM 59.0 °F 59.0 °F 100% 29.95 in 1.8 mi Calm Calm - 0.03 in Rain Rain
6:15 AM 59.0 °F 59.0 °F 100% 29.95 in 2.0 mi Calm Calm - 0.01 in Rain Light Rain
6:35 AM 59.0 °F 59.0 °F 100% 29.95 in 3.0 mi Calm Calm - 0.02 in Rain Light Rain
6:55 AM 59.0 °F 59.0 °F 100% 29.95 in 5.0 mi SW 5.8 mph - 0.03 in   Mostly Cloudy
7:15 AM 59.0 °F 59.0 °F 100% 29.95 in 4.0 mi Calm Calm - N/A   Overcast
7:35 AM 59.0 °F 59.0 °F 100% 29.95 in 4.0 mi Calm Calm - N/A   Overcast
7:55 AM 59.0 °F 59.0 °F 100% 29.95 in 5.0 mi Calm Calm - N/A   Mostly Cloudy
8:15 AM 59.0 °F 59.0 °F 100% 29.95 in 5.0 mi Calm Calm - N/A   Mostly Cloudy
8:35 AM 59.0 °F 59.0 °F 100% 29.96 in 7.0 mi WSW 5.8 mph - N/A   Overcast
8:55 AM 59.0 °F 59.0 °F 100% 29.96 in 7.0 mi Calm Calm - N/A   Overcast
9:15 AM 60.8 °F 59.0 °F 94% 29.96 in 9.0 mi Calm Calm - N/A   Overcast
9:35 AM 62.6 °F 60.8 °F 94% 29.96 in 10.0 mi Calm Calm - N/A   Overcast
9:55 AM 62.6 °F 60.8 °F 94% 29.96 in 10.0 mi Calm Calm - N/A   Mostly Cloudy
10:15 AM 62.6 °F 60.8 °F 94% 29.96 in 10.0 mi WSW 6.9 mph - N/A   Mostly Cloudy
10:35 AM 64.4 °F 60.8 °F 88% 29.96 in 10.0 mi Calm Calm - N/A   Mostly Cloudy
10:55 AM 64.4 °F 59.0 °F 83% 29.96 in 10.0 mi SW 3.5 mph - N/A   Overcast
11:15 AM 64.4 °F 59.0 °F 83% 29.96 in 10.0 mi WSW 9.2 mph - N/A   Overcast
11:35 AM 66.2 °F 59.0 °F 78% 29.95 in 10.0 mi WSW 6.9 mph - N/A   Mostly Cloudy
11:55 AM 68.0 °F 59.0 °F 73% 29.95 in 10.0 mi WSW 4.6 mph - N/A   Mostly Cloudy
12:15 PM 68.0 °F 59.0 °F 73% 29.95 in 10.0 mi WSW 6.9 mph - N/A   Mostly Cloudy
12:35 PM 66.2 °F 60.8 °F 83% 29.95 in 7.0 mi SW 8.1 mph - N/A Rain Light Rain
12:55 PM 66.2 °F 60.8 °F 83% 29.94 in 10.0 mi Calm Calm - 0.01 in   Scattered Clouds
1:15 PM 68.0 °F 60.8 °F 78% 29.92 in 10.0 mi Calm Calm - N/A   Partly Cloudy
1:35 PM 68.0 °F 59.0 °F 73% 29.93 in 10.0 mi NW 3.5 mph - N/A   Mostly Cloudy
1:55 PM 64.4 °F 62.6 °F 94% 29.93 in 10.0 mi Calm Calm - N/A   Overcast
2:15 PM 64.4 °F 60.8 °F 88% 29.93 in 1.8 mi WNW 4.6 mph - 0.06 in Rain Rain
2:35 PM 62.6 °F 59.0 °F 88% 29.92 in 1.5 mi Calm Calm - 0.18 in Rain Light Rain
2:55 PM 64.4 °F 60.8 °F 88% 29.92 in 5.0 mi Calm Calm - 0.21 in Rain Light Rain
3:15 PM 68.0 °F 62.6 °F 83% 29.92 in 10.0 mi SSW 4.6 mph - N/A   Partly Cloudy
3:35 PM 68.0 °F 60.8 °F 78% 29.91 in 10.0 mi WSW 6.9 mph - N/A   Partly Cloudy
3:55 PM 68.0 °F 60.8 °F 78% 29.90 in 10.0 mi Calm Calm - N/A   Mostly Cloudy
4:15 PM 66.2 °F 59.0 °F 78% 29.90 in 9.0 mi West 5.8 mph - N/A Rain Light Rain
4:35 PM 68.0 °F 59.0 °F 73% 29.91 in 10.0 mi Calm Calm - N/A   Partly Cloudy
4:55 PM 69.8 °F 57.2 °F 64% 29.90 in 10.0 mi WNW 8.1 mph 16.1 mph N/A   Clear
5:15 PM 68.0 °F 57.2 °F 68% 29.90 in 10.0 mi WNW 9.2 mph - N/A   Partly Cloudy
5:35 PM 68.0 °F 57.2 °F 68% 29.90 in 10.0 mi WNW 9.2 mph 20.7 mph N/A   Partly Cloudy
5:55 PM 68.0 °F 57.2 °F 68% 29.91 in 10.0 mi West 11.5 mph 17.3 mph N/A   Partly Cloudy
6:15 PM 68.0 °F 55.4 °F 64% 29.91 in 10.0 mi WNW 13.8 mph 21.9 mph N/A   Partly Cloudy
6:35 PM 66.2 °F 55.4 °F 68% 29.91 in 10.0 mi WNW 8.1 mph - N/A   Partly Cloudy
6:55 PM 66.2 °F 55.4 °F 68% 29.92 in 10.0 mi WNW 6.9 mph 16.1 mph N/A   Scattered Clouds
7:15 PM 64.4 °F 53.6 °F 68% 29.92 in 10.0 mi NW 9.2 mph 18.4 mph N/A   Mostly Cloudy
7:35 PM 62.6 °F 53.6 °F 72% 29.93 in 10.0 mi West 6.9 mph - N/A   Scattered Clouds
7:55 PM 62.6 °F 51.8 °F 68% 29.94 in 10.0 mi West 5.8 mph - N/A   Clear
8:15 PM 60.8 °F 51.8 °F 72% 29.95 in 10.0 mi West 3.5 mph - N/A   Clear
8:35 PM 60.8 °F 51.8 °F 72% 29.95 in 10.0 mi Calm Calm - N/A   Mostly Cloudy
8:55 PM 59.0 °F 51.8 °F 77% 29.96 in 10.0 mi West 6.9 mph - N/A   Overcast
9:15 PM 59.0 °F 50.0 °F 72% 29.96 in 10.0 mi WNW 5.8 mph - N/A   Overcast
9:35 PM 59.0 °F 51.8 °F 77% 29.97 in 10.0 mi Calm Calm - N/A   Overcast
9:55 PM 59.0 °F 50.0 °F 72% 29.98 in 10.0 mi Calm Calm - N/A   Mostly Cloudy
10:15 PM 57.2 °F 50.0 °F 77% 29.99 in 10.0 mi Calm Calm - N/A   Mostly Cloudy
10:35 PM 57.2 °F 50.0 °F 77% 29.99 in 10.0 mi Calm Calm - N/A   Unknown
10:55 PM 55.4 °F 48.2 °F 77% 30.00 in 10.0 mi Calm Calm - N/A   Unknown
11:15 PM 53.6 °F 48.2 °F 82% 30.00 in 10.0 mi Calm Calm - N/A   Unknown
11:35 PM 53.6 °F 48.2 °F 82% 30.01 in 10.0 mi Calm Calm - N/A   Unknown
11:55 PM 53.6 °F 48.2 °F 82% 30.01 in 10.0 mi Calm Calm - N/A   Unknown